TimeCDT,TemperatureF,Dew PointF,Humidity,Sea Level PressureIn,VisibilityMPH,Wind Direction,Wind SpeedMPH,Gust SpeedMPH,PrecipitationIn,Events,Conditions,WindDirDegrees,DateUTC
12:15 AM,26.6,23.0,86,30.02,10.0,West,9.2,-,N/A,,Clear,270,2012-10-10 05:15:00
12:35 AM,26.6,23.0,86,30.02,10.0,West,8.1,-,N/A,,Clear,280,2012-10-10 05:35:00
12:55 AM,26.6,23.0,86,30.02,10.0,WNW,6.9,-,N/A,,Clear,300,2012-10-10 05:55:00
1:15 AM,26.6,23.0,86,30.01,10.0,West,6.9,-,N/A,,Clear,280,2012-10-10 06:15:00
1:35 AM,26.6,23.0,86,30.01,10.0,West,5.8,-,N/A,,Clear,280,2012-10-10 06:35:00
1:55 AM,24.8,21.2,86,30.01,10.0,West,4.6,-,N/A,,Clear,270,2012-10-10 06:55:00
2:15 AM,23.0,19.4,86,30.01,10.0,West,8.1,-,N/A,,Clear,270,2012-10-10 07:15:00
2:35 AM,24.8,21.2,86,30.00,10.0,West,5.8,-,N/A,,Clear,260,2012-10-10 07:35:00
2:55 AM,24.8,21.2,86,30.00,10.0,West,8.1,-,N/A,,Clear,270,2012-10-10 07:55:00
3:15 AM,26.6,23.0,86,30.00,10.0,West,6.9,-,N/A,,Clear,270,2012-10-10 08:15:00
3:35 AM,24.8,23.0,93,30.00,10.0,WSW,4.6,-,N/A,,Clear,240,2012-10-10 08:35:00
3:55 AM,26.6,23.0,86,29.99,10.0,West,4.6,-,N/A,,Partly Cloudy,260,2012-10-10 08:55:00
4:15 AM,26.6,24.8,93,29.98,10.0,WSW,3.5,-,N/A,,Mostly Cloudy,250,2012-10-10 09:15:00
4:35 AM,28.4,24.8,86,29.98,10.0,Calm,Calm,-,N/A,,Overcast,0,2012-10-10 09:35:00
4:55 AM,28.4,26.6,93,29.98,10.0,Calm,Calm,-,N/A,,Overcast,0,2012-10-10 09:55:00
5:15 AM,28.4,24.8,86,29.97,10.0,South,3.5,-,N/A,,Overcast,190,2012-10-10 10:15:00
5:35 AM,30.2,26.6,86,29.97,10.0,South,3.5,-,N/A,,Overcast,190,2012-10-10 10:35:00
5:55 AM,32.0,26.6,80,29.96,10.0,SW,3.5,-,N/A,,Overcast,220,2012-10-10 10:55:00
6:15 AM,32.0,26.6,80,29.96,10.0,SW,4.6,-,N/A,,Overcast,220,2012-10-10 11:15:00
6:35 AM,32.0,26.6,80,29.95,10.0,SSW,4.6,-,N/A,,Overcast,200,2012-10-10 11:35:00
6:55 AM,32.0,26.6,80,29.94,10.0,SSW,5.8,-,N/A,,Overcast,200,2012-10-10 11:55:00
7:15 AM,32.0,26.6,80,29.94,10.0,SSW,6.9,-,N/A,,Overcast,210,2012-10-10 12:15:00
7:55 AM,33.8,26.6,75,29.93,10.0,SW,4.6,-,N/A,,Overcast,220,2012-10-10 12:55:00
8:15 AM,33.8,26.6,75,29.91,10.0,SSE,3.5,-,N/A,,Overcast,160,2012-10-10 13:15:00
8:35 AM,35.6,26.6,70,29.90,10.0,South,5.8,-,N/A,,Overcast,170,2012-10-10 13:35:00
8:55 AM,35.6,26.6,70,29.90,10.0,SE,5.8,-,N/A,,Overcast,130,2012-10-10 13:55:00
9:15 AM,35.6,26.6,70,29.90,10.0,SSE,5.8,-,N/A,,Overcast,150,2012-10-10 14:15:00
9:35 AM,37.4,26.6,65,29.90,10.0,ESE,5.8,-,N/A,,Overcast,110,2012-10-10 14:35:00
9:55 AM,37.4,26.6,65,29.89,10.0,East,5.8,-,N/A,,Overcast,100,2012-10-10 14:55:00
10:15 AM,37.4,28.4,70,29.88,10.0,East,6.9,-,N/A,,Scattered Clouds,80,2012-10-10 15:15:00
10:35 AM,35.6,28.4,75,29.88,10.0,East,9.2,-,N/A,Rain,Light Rain,90,2012-10-10 15:35:00
10:55 AM,35.6,32.0,87,29.87,10.0,East,10.4,-,N/A,Rain,Light Rain,100,2012-10-10 15:55:00
11:15 AM,35.6,32.0,87,29.86,10.0,East,11.5,-,N/A,Rain,Light Rain,100,2012-10-10 16:15:00
11:35 AM,37.4,32.0,81,29.85,10.0,East,11.5,-,N/A,,Partly Cloudy,90,2012-10-10 16:35:00
11:55 AM,35.6,33.8,93,29.85,10.0,East,12.7,16.1,N/A,Rain,Light Rain,100,2012-10-10 16:55:00
12:15 PM,35.6,35.6,100,29.84,10.0,ESE,11.5,-,N/A,,Clear,120,2012-10-10 17:15:00
12:35 PM,37.4,35.6,93,29.84,10.0,ESE,10.4,-,N/A,,Partly Cloudy,120,2012-10-10 17:35:00
12:55 PM,39.2,35.6,87,29.84,10.0,East,10.4,-,N/A,,Mostly Cloudy,100,2012-10-10 17:55:00
1:15 PM,39.2,35.6,87,29.85,10.0,East,11.5,-,N/A,,Scattered Clouds,80,2012-10-10 18:15:00
1:35 PM,37.4,35.6,93,29.85,10.0,NE,9.2,-,N/A,,Mostly Cloudy,50,2012-10-10 18:35:00
1:55 PM,37.4,35.6,93,29.84,10.0,East,10.4,-,N/A,,Overcast,80,2012-10-10 18:55:00
2:15 PM,39.2,35.6,87,29.83,10.0,East,11.5,-,N/A,,Overcast,80,2012-10-10 19:15:00
2:35 PM,39.2,35.6,87,29.83,10.0,ENE,8.1,16.1,N/A,,Scattered Clouds,60,2012-10-10 19:35:00
2:55 PM,39.2,35.6,87,29.83,10.0,East,8.1,-,N/A,,Partly Cloudy,80,2012-10-10 19:55:00
3:15 PM,39.2,33.8,81,29.84,10.0,ENE,9.2,-,N/A,,Partly Cloudy,70,2012-10-10 20:15:00
3:35 PM,39.2,35.6,87,29.84,10.0,ENE,6.9,-,N/A,,Partly Cloudy,60,2012-10-10 20:35:00
3:55 PM,39.2,35.6,87,29.85,10.0,NE,8.1,-,N/A,,Partly Cloudy,50,2012-10-10 20:55:00
4:15 PM,39.2,33.8,81,29.85,10.0,NE,8.1,-,N/A,,Scattered Clouds,50,2012-10-10 21:15:00
4:35 PM,39.2,35.6,87,29.87,10.0,NNE,6.9,-,N/A,,Mostly Cloudy,30,2012-10-10 21:35:00
4:55 PM,39.2,33.8,81,29.87,10.0,NNE,6.9,-,N/A,,Mostly Cloudy,30,2012-10-10 21:55:00
5:15 PM,39.2,33.8,81,29.88,10.0,NNE,8.1,-,N/A,,Overcast,30,2012-10-10 22:15:00
5:35 PM,39.2,33.8,81,29.89,10.0,NNE,9.2,-,N/A,,Overcast,20,2012-10-10 22:35:00
5:55 PM,37.4,33.8,87,29.90,10.0,NNE,10.4,-,N/A,,Overcast,30,2012-10-10 22:55:00
6:15 PM,37.4,32.0,81,29.91,10.0,North,12.7,-,N/A,,Overcast,10,2012-10-10 23:15:00
6:35 PM,37.4,33.8,87,29.92,10.0,NNE,12.7,-,N/A,,Overcast,20,2012-10-10 23:35:00
6:55 PM,37.4,32.0,81,29.92,10.0,NNE,9.2,-,N/A,,Mostly Cloudy,20,2012-10-10 23:55:00
7:15 PM,37.4,32.0,81,29.94,10.0,North,10.4,-,N/A,,Mostly Cloudy,10,2012-10-11 00:15:00
7:35 PM,37.4,32.0,81,29.95,10.0,NNE,6.9,-,N/A,,Overcast,20,2012-10-11 00:35:00
7:55 PM,37.4,33.8,87,29.96,10.0,North,11.5,-,N/A,,Overcast,10,2012-10-11 00:55:00
8:15 PM,37.4,33.8,87,29.97,10.0,North,10.4,-,N/A,,Overcast,10,2012-10-11 01:15:00
8:35 PM,35.6,33.8,93,29.98,10.0,North,9.2,-,N/A,,Overcast,360,2012-10-11 01:35:00
8:55 PM,35.6,33.8,93,29.98,10.0,North,9.2,-,N/A,,Overcast,360,2012-10-11 01:55:00
9:15 PM,35.6,33.8,93,29.99,10.0,North,8.1,-,N/A,,Overcast,360,2012-10-11 02:15:00
9:35 PM,35.6,33.8,93,30.00,10.0,North,9.2,-,N/A,,Overcast,360,2012-10-11 02:35:00
9:55 PM,35.6,33.8,93,30.01,10.0,North,8.1,-,N/A,Rain,Light Rain,350,2012-10-11 02:55:00
10:15 PM,35.6,33.8,93,30.02,10.0,NNW,9.2,-,N/A,,Overcast,340,2012-10-11 03:15:00
10:35 PM,35.6,33.8,93,30.03,10.0,NNW,6.9,-,N/A,,Overcast,330,2012-10-11 03:35:00
10:55 PM,35.6,35.6,100,30.03,10.0,NNW,5.8,-,N/A,,Overcast,330,2012-10-11 03:55:00
11:15 PM,35.6,35.6,100,30.05,10.0,NNW,9.2,-,N/A,,Overcast,340,2012-10-11 04:15:00
11:35 PM,35.6,33.8,93,30.06,10.0,North,11.5,-,N/A,Rain,Light Rain,360,2012-10-11 04:35:00
11:55 PM,35.6,33.8,93,30.06,10.0,North,15.0,-,N/A,,Overcast,360,2012-10-11 04:55:00